Content
SEND FEEDBACK

Mexico Flag

MORELIA, MICHOACAN


Home > North America > Mexico > Michoacan
Elevation: 6275 feet     Latitude: 19 42N     Longitude: 101 11W

WEATHER
 
SELECT A DAY
Number of Records: 167,776;   Date Range: 1/1/95 - 3/22/16
 
SHARE

PRINT THIS DATA

[ ← Previous Day ]
WEATHER ALMANAC - MARCH 5, 2013
[ Next Day → ]
[ °C ]   °F
Weather ElementAverageHighLow
Temperature60.2 °F81 °F (2:50 pm)33.8 °F (6:46 am)
Dewpoint26.2 °F46 °F (2:50 pm)15.8 °F (5:47 pm)
Humidity30.2 %65 % (6:46 am)7 % (11:50 am)
Barometer30.16 in30.35 in (8:57 am)29.76 in (8:55 pm)
Wind Speed2.3 mph12.7 mph (4:45 pm)
Weather ElementAverage
Visibility7.2 mi
Wind DirectionESE (102.4 °)

Weather ElementTotal
Precipitation---
Heating Degree Days7.6 (Base 65)
Growing Degree Days7.4 (Base 50)
Averaged from 37 records on March 5, 2013
WEATHER CONDITIONS BREAKOUT
WIND DIRECTION BREAKOUT
WEATHER BY HOUR - MARCH 5, 2013
[ °C ]   °F
Local TimeTemperatureDewpointHumidityBarometerVisibilityWind DirectionWind SpeedGust SpeedPrecipitationEventsConditions
1:41 AM44.6 °F26.6 °F49 %30.24 in6.0 miCalmClear
2:50 AM50.0 °F29.0 °F31 %29.91 in5.0 miWSW (240°)2.2 mph
3:42 AM37.4 °F23.0 °F56 %30.24 in6.0 miCalmClear
4:43 AM39.2 °F21.2 °F49 %30.25 in6.0 miCalmClear
5:50 AM45.0 °F27.0 °F37 %30.03 in5.0 miSouth (180°)2.2 mph
5:54 AM35.6 °F23.0 °F60 %30.02 in6.0 miCalmClear
6:46 AM33.8 °F23.0 °F65 %30.30 in6.0 miCalmClear
7:42 AM37.4 °F26.6 °F65 %30.32 in8.0 miCalmClear
8:01 AM42.8 °F28.4 °F57 %30.34 in8.0 miCalmClear
8:19 AM46.4 °F28.4 °F50 %30.34 in8.0 miCalmClear
8:44 AM50.0 °F26.6 °F40 %30.11 in8.0 miCalmClear
8:50 AM48.0 °F34.0 °F46 %30.18 in7.0 miWSW (240°)2.2 mph
8:57 AM53.6 °F28.4 °F38 %30.35 in8.0 miCalmClear
9:22 AM57.2 °F30.2 °F36 %30.35 in8.0 miCalmClear
9:42 AM59.0 °F28.4 °F31 %30.35 in8.0 miCalmClear
10:12 AM62.6 °F28.4 °F27 %30.35 in8.0 miCalmClear
10:38 AM66.2 °F26.6 °F23 %30.34 in8.0 miCalmClear
10:46 AM68.0 °F28.4 °F23 %30.34 in8.0 miCalmClear
11:30 AM71.6 °F26.6 °F19 %30.33 in8.0 miCalmClear
11:49 AM71.6 °F28.4 °F20 %29.99 in8.0 miWNW (290°)6.9 mphClear
11:50 AM72.0 °F22.0 °F7 %30.13 in7.0 miNE (50°)2.2 mph
12:45 PM73.4 °F24.8 °F16 %30.28 in8.0 miWNW (300°)5.8 mphClear
1:21 PM77.0 °F23.0 °F13 %30.25 in8.0 miNNW (340°)8.1 mphClear
1:45 PM77.0 °F23.0 °F13 %30.23 in8.0 miNorth (350°)4.6 mphClear
2:45 PM78.8 °F19.4 °F11 %29.89 in8.0 miNNE (20°)4.6 mphClear
2:50 PM81.0 °F46.0 °F19 %29.92 in7.0 miNorth2.2 mph
3:45 PM80.6 °F19.4 °F10 %30.17 in8.0 miNNW (330°)11.5 mphClear
4:45 PM78.8 °F19.4 °F11 %30.16 in8.0 miNW (320°)12.7 mphClear
5:47 PM78.8 °F15.8 °F9 %29.86 in8.0 miNNW (330°)3.5 mphClear
5:50 PM77.0 °F32.0 °F11 %29.77 in7.0 miNorth2.2 mph
6:47 PM69.8 °F23.0 °F17 %30.16 in8.0 miWNW (290°)3.5 mphClear
7:45 PM66.2 °F21.2 °F18 %30.19 in7.0 miSSW (210°)8.1 mphClear
8:43 PM62.6 °F24.8 °F24 %29.89 in7.0 miCalmClear
8:55 PM66.0 °F27.0 °F13 %29.76 in5.0 miWNW (300°)2.2 mph
9:44 PM57.2 °F24.8 °F29 %30.26 in6.0 miCalmClear
10:45 PM57.2 °F32.0 °F38 %30.28 in8.0 miCalmClear
11:45 PM53.6 °F28.4 °F38 %29.92 in6.0 miCalmClear
Hourly data recorded from MMMM, located miles away from Morelia, Michoacan




STORIES FROM OUR PARTNERS